CZ-3C DEB

基本信息
目录编号:
40861
目录名称:
CZ-3C DEB
国际标识:
2012-008AB
轨道中心:
EARTH
物体状态:
在轨
发射日期:
2012-02-24 UTC
轨道信息
数据来源: 国际轨道数据
星历时间: 2026-03-20T05:55:25+0800
半长轴: 24314.436km
偏心率: 0.7102767
轨道倾角: 21.294°
近地点辐角: 220.352°
升交点赤经: 6.574°
平近点角: 56.044°
近地点: 666.321km
远地点: 35206.277km
周期: 628.863分钟
每日圈数: 2.289847
详细信息
发射场:
XSC
轨道高度:
LEO
数据来源:
AOE Integration Group
参考系:
TEME
时间系统:
UTC
历元类型:
SGP4
2D轨道图
3D轨道图
轨道高度分析图
轨道倾角分析图
轨道综合分析图
查看轨道综合分析图